THOR ABLESTAR DEB, 224

Orbit data source: Space-Track

THOR ABLESTAR DEB, 224 is space debris in LEO originally from a launch on Thu, 29 Jun 1961 UTC launched from the Air Force Eastern Test Range (AFETR). Debris objects in space refer to the collection of defunct objects orbiting the Earth. Examples of debris include non-operational satellites, rocket bodies, and fragments generated from explosions, collisions, or faulty payload assembly.

Loading next visibility...
Identifier
224, 1961-015BL
Orbit
LEO
Country
Flag of USUS
Related business
Manufacturer
Unknown
Mission
Spacecraft
Bus & Motor
Unknown
Mass
Unknown
Launch date (UTC)
1961-06-29 (64 years ago)
Launch vehicle
Unknown
Launch site
Air Force Eastern Test Range (AFETR)
Object type
Payload
Rocket body
Debris
Shape & HBR
Unknown
Radar Cross Section
Medium (>0.1 m² and <1 m²)

Expand to show TLE details & history
Last TLE update: 6 hours ago

TLE from 6 hours ago
0 THOR ABLESTAR DEB
1 00224U 61015BL  25260.92178740  .00000361  00000-0  23825-3 0  9997
2 00224  66.7345 122.9741 0069768 226.4666 232.8082 14.11548637274081
Epoch: 2025-09-17T22:07Z
TLE epoch observation values (Epoch: 2025-09-17T22:07:22.431Z)
Latitude
65.37637°
Longitude
-94.89302°
Altitude
895.244 km
Speed
7.395 km/s
True Right ascension
15h 36m 09s
True Declination
65° 14' 54"
Sunlit
Object was in daylight at epoch
Visualization orbit readout
Latitude
Unknown
Longitude
Unknown
Altitude
Unknown
Speed
Unknown
Apparent Right ascension
Unknown
Apparent Declination
Unknown
Sunlit
N/A
Visualization observer readout
Local Sidereal Time
21:21:29
Azimuth
Unknown
Elevation
Unknown
Doppler factor
Unknown
Orbital elements
Apogee altitude
902.909 km
Perigee altitude
802.016 km
Semi-major axis
7,230.599 km
Eccentricity
0.00698
Inclination
66.7345°
RAAN
122.9741°
Arg. of periapsis
226.4666°
True anomaly
232.17467°
Mean anomaly
232.8082°
Eccentric anomaly
232.4911°
Mean motion
3.53006 °/min
Orbital period
101.98 mins
BSTAR
0.00023825
Loading maneuver chart data...
Computing Atmospheric mass density...

Documentation

Showing up to 5 results
|